SCP
2 1 1 0 0 0 0 0 0 0 0 0 0 0 0 0 0 0 0 0 0 0 0 0 0 0 0 0 0 0 0 1 1 0 1 1 1 1 1 1 1 1 1 1 1 1 1 1 1
1 1 0 0 0 0 0 0 0 0 0 0 0 0 0 0 0 0 0 0 0 0 0 1 1 1 0 0 0 0 1 1 1 1 1 1 1 1 1 1 1 1 1 1 1 1 1 1 1
1 0 0 0 0 0 0 0 0 1 1 0 0 0 0 0 0 0 1 0 0 0 0 1 1 1 0 0 0 0 1 1 1 1 1 1 1 1 1 1 1 1 1 1 1 1 1 1 1
0 0 0 0 0 0 0 0 1 1 1 0 0 0 0 0 0 1 1 1 0 0 0 1 1 1 1 1 0 0 1 1 1 1 1 1 1 1 1 1 1 1 1 1 1 1 1 1 1
0 0 0 0 0 0 0 0 1 1 1 1 0 0 0 1 1 1 1 1 0 0 0 1 1 1 1 1 1 1 0 1 1 1 1 1 1 1 1 1 1 1 1 1 1 2 2 1 1
0 0 0 0 0 0 0 1 1 1 1 1 1 1 1 1 1 1 1 1 0 0 0 1 1 1 1 1 1 1 1 1 1 1 1 1 1 1 1 1 1 1 1 1 1 1 2 1 1
0 0 0 0 0 0 0 1 1 1 1 1 1 1 1 1 1 1 1 1 0 0 0 0 1 1 1 1 1 1 1 1 1 1 1 1 1 1 1 0 1 1 1 1 1 1 1 1 1
1 0 0 0 0 0 0 1 2 2 1 1 1 1 1 1 1 1 1 1 0 0 0 0 1 1 1 1 1 1 1 1 1 1 1 1 1 1 1 0 0 0 1 1 1 1 1 1 1
1 0 0 0 0 0 0 1 2 2 2 1 1 1 1 1 1 1 1 1 0 0 0 0 0 0 1 1 1 2 2 2 1 1 1 1 1 1 1 1 0 0 0 0 0 1 1 1 1
1 1 0 0 0 0 0 1 1 2 2 2 1 1 1 2 1 1 1 1 0 0 0 0 0 0 0 1 1 1 2 2 2 2 1 2 2 2 1 1 1 1 0 0 0 0 0 1 1
1 1 0 0 0 0 0 1 1 2 1 1 1 1 1 2 1 1 1 1 0 0 0 0 0 0 0 0 0 1 1 2 2 2 2 2 3 2 2 2 1 1 1 0 0 0 0 0 0
1 1 1 1 1 1 1 1 1 2 1 1 1 1 2 2 1 1 1 1 0 0 0 0 0 0 0 0 0 0 1 1 2 2 2 3 3 3 3 2 2 1 1 0 0 0 0 0 0
1 1 1 1 1 1 1 1 1 2 2 1 1 1 2 2 1 1 1 1 1 0 0 0 0 0 0 0 0 0 0 1 1 1 1 2 3 3 2 2 2 1 1 1 1 0 1 0 0
1 1 1 1 1 1 1 1 1 2 2 2 1 1 2 1 1 1 1 1 1 0 0 0 0 0 0 0 0 0 0 1 1 1 1 1 1 2 1 1 1 1 1 1 1 1 1 1 0
1 1 1 1 0 1 1 1 1 2 2 2 2 1 1 1 1 1 1 1 0 0 0 0 0 0 0 0 0 0 1 1 1 1 1 1 1 1 1 1 1 1 1 1 1 1 1 1 0
1 1 1 1 0 1 1 1 1 2 2 2 2 2 1 1 1 1 1 1 1 0 0 0 0 0 0 0 1 1 1 1 1 1 1 1 1 1 1 1 1 1 1 0 0 0 0 0 0
1 1 1 1 1 1 1 0 1 2 2 2 2 2 1 1 1 1 1 1 1 1 1 0 0 0 0 0 1 1 1 2 2 1 1 1 1 1 1 1 1 1 1 0 0 0 0 0 1
0 0 0 1 1 1 1 0 1 2 2 2 2 2 1 1 1 1 1 1 1 1 1 1 1 1 0 1 1 1 1 2 3 2 1 1 1 1 1 1 1 1 1 0 0 0 0 1 1
0 0 0 0 1 1 1 0 1 2 2 2 2 2 1 1 1 1 1 1 1 1 1 1 1 0 1 1 1 1 1 2 4 3 2 1 1 1 1 1 1 1 1 1 1 1 0 1 1
0 0 0 0 0 0 1 0 1 2 3 3 2 2 1 1 1 1 1 1 1 1 1 1 1 1 1 1 1 1 1 1 3 4 3 2 1 1 1 1 1 1 1 1 1 1 1 1 1
0 0 0 0 0 0 0 0 1 2 3 3 3 2 2 1 1 1 1 1 1 1 1 1 1 1 1 1 1 1 1 1 2 2 3 2 1 1 2 1 1 1 1 1 1 1 1 1 1
0 0 0 0 0 0 0 0 1 2 3 3 3 3 2 1 1 1 1 1 1 1 1 1 1 1 1 1 1 1 1 1 1 1 1 2 1 2 2 2 2 2 1 1 1 1 1 1 1
0 0 0 0 0 0 0 0 0 1 2 3 3 3 2 2 1 1 1 1 1 1 1 1 1 1 1 1 1 1 0 0 0 1 1 1 1 2 2 2 2 2 2 2 1 1 1 1 1
0 0 0 0 0 0 0 0 0 0 1 3 3 3 3 2 2 1 2 1 1 1 1 1 1 1 2 1 1 1 1 0 1 1 1 1 1 2 2 2 2 2 2 2 1 1 1 1 1
0 0 0 0 0 0 0 0 0 0 1 2 3 4 3 3 2 2 2 1 1 1 1 1 1 1 2 2 1 1 1 1 1 1 1 1 1 1 1 1 1 2 1 1 1 1 1 1 1
0 0 0 0 0 0 0 0 0 0 0 1 3 4 3 3 2 2 1 1 1 1 1 1 1 1 1 2 2 1 1 1 1 1 1 1 1 1 1 1 1 1 1 1 1 1 1 1 1
0 0 0 0 0 0 0 0 0 0 0 1 2 3 4 3 2 2 1 1 1 1 1 1 1 1 1 2 2 2 2 1 1 1 1 1 0 1 1 1 1 1 1 1 1 1 1 1 1
0 0 0 1 0 0 0 0 0 0 0 1 2 3 3 3 3 2 2 1 1 1 1 1 1 1 1 1 2 2 2 2 1 1 1 1 0 1 1 1 1 1 1 1 1 1 1 1 1
0 0 0 1 0 0 0 0 0 0 0 1 1 2 3 3 3 3 2 2 1 1 1 1 1 1 1 1 2 2 2 2 2 1 1 1 1 0 0 1 1 1 1 1 0 0 1 1 1
0 0 0 1 0 0 0 0 0 0 0 0 1 1 2 3 3 3 3 2 2 1 0 1 1 1 1 1 2 2 2 2 2 1 1 1 1 1 0 0 1 0 0 1 1 0 0 0 0
Wind_Speed
5 3 2 2 2 2 5 5 3 4 4 5 5 5 6 7 6 6 4 3 3 3 4 4 5 6 7 7 7 7 7 7 7 8 8 8 8 8 8 8 7 7 7 7 6 7 7 7 7
2 2 2 2 1 4 5 4 5 6 6 5 5 5 6 7 6 6 3 3 3 4 4 5 6 7 7 8 8 8 8 8 8 8 9 9 8 8 8 8 8 7 7 7 7 7 7 7 7
2 1 1 0 2 4 5 5 6 6 5 3 4 5 6 6 5 4 4 3 3 4 4 7 6 7 8 8 9 9 9 9 9 9 9 8 8 8 8 8 9 8 8 8 8 7 7 7 7
1 1 1 3 8 6 5 5 6 6 5 4 4 7 6 5 4 5 5 4 5 5 6 8 7 8 8 9 10 10 10 10 10 9 9 8 8 8 9 9 9 9 9 8 8 7 7 7 7
1 1 3 5 7 6 5 4 3 4 4 5 5 7 7 5 6 6 6 5 6 6 6 8 8 8 8 9 9 10 10 10 10 10 10 9 8 8 9 9 9 9 9 8 8 7 7 7 7
1 1 3 6 7 6 5 4 4 5 6 5 6 7 7 5 6 6 5 5 6 7 6 7 8 8 8 9 9 10 10 10 11 11 11 10 9 9 8 8 8 8 8 8 8 8 7 7 7
1 2 4 6 6 5 4 3 3 5 6 5 4 6 7 6 5 5 6 6 6 6 6 5 7 7 8 9 9 9 10 10 10 10 10 10 10 9 8 8 8 7 7 8 8 8 8 8 7
1 2 5 5 5 5 4 3 3 4 6 5 2 4 6 6 6 6 6 6 6 6 6 5 6 5 6 7 9 8 9 9 9 9 9 7 7 7 7 8 9 8 8 8 8 7 7 7 7
1 2 4 4 4 5 5 4 4 3 6 5 4 5 7 9 7 6 6 6 5 5 5 5 5 5 5 5 6 6 7 6 5 6 6 3 4 6 6 10 9 9 8 8 8 7 6 5 6
1 2 4 3 3 4 5 4 4 5 6 6 6 7 9 9 7 6 5 5 5 5 5 4 4 4 4 4 4 3 4 4 4 4 5 4 5 5 5 8 8 8 7 8 7 5 3 0 3
3 4 5 4 4 4 6 5 3 4 4 4 6 8 9 8 6 5 5 5 4 5 5 4 4 4 4 3 3 3 3 3 4 5 5 4 4 3 3 3 4 4 4 4 4 2 3 4 4
5 5 4 5 5 4 4 5 4 3 3 3 6 8 9 7 6 4 4 4 4 4 4 3 3 3 3 4 3 3 3 3 3 4 5 4 3 3 3 2 3 3 3 4 3 3 4 5 5
5 5 5 5 5 5 5 5 4 4 3 5 7 8 8 6 5 4 4 4 4 4 4 3 3 3 3 4 3 3 3 3 4 4 4 4 3 3 3 3 3 3 3 3 3 3 4 5 6
5 6 5 4 4 3 4 4 3 3 4 6 7 7 7 6 5 4 4 3 3 3 3 3 3 3 3 3 3 3 3 3 3 3 4 4 3 3 3 4 3 3 3 3 3 4 4 4 5
6 6 5 2 2 2 3 3 2 3 5 6 6 5 5 5 4 3 4 3 3 3 3 3 3 2 3 3 3 3 2 3 3 3 4 4 4 4 4 3 3 3 3 3 3 4 3 4 4
5 5 4 3 2 3 4 2 3 4 6 6 5 5 5 4 4 3 3 3 3 3 3 4 2 2 3 3 3 2 2 3 3 3 3 4 4 5 4 3 3 3 3 3 3 3 3 4 4
5 3 3 4 3 3 3 1 3 4 5 5 4 4 5 4 3 3 3 2 2 2 3 3 3 2 3 3 2 2 2 2 2 2 3 4 4 4 4 3 3 3 3 3 3 3 3 3 4
3 3 3 2 3 4 3 2 2 4 4 4 4 4 4 4 4 3 3 3 2 2 2 2 3 2 3 2 2 2 2 2 2 2 3 4 3 4 3 2 3 3 2 2 2 3 3 3 3
2 3 2 1 2 3 3 2 2 3 4 4 4 4 4 4 4 4 3 3 3 2 2 2 2 2 2 1 1 1 2 2 2 2 3 3 3 3 3 2 3 2 3 3 3 3 3 3 2
4 3 2 2 2 3 2 2 1 2 3 3 4 5 5 5 5 4 3 3 3 2 2 2 2 2 2 1 1 1 1 1 2 2 2 3 3 3 2 2 2 2 2 2 3 2 1 2 1
4 4 3 2 3 4 3 3 2 2 2 2 3 3 4 5 5 5 5 4 3 2 2 2 2 3 2 2 1 1 1 1 1 1 2 3 3 3 2 3 2 2 1 2 1 1 1 1 1
3 2 4 4 5 2 4 3 2 2 2 2 2 3 4 4 5 5 5 4 3 3 2 2 3 3 3 3 2 2 1 0 1 1 1 1 2 2 2 2 2 2 1 1 1 1 1 0 0
2 1 3 5 5 3 3 4 2 2 1 1 1 2 2 3 4 4 4 4 3 3 2 2 2 2 2 2 2 2 1 0 0 0 1 1 1 2 1 1 1 2 1 1 1 0 1 0 1
3 4 4 5 6 5 3 5 2 1 2 1 0 1 2 2 3 3 4 4 3 3 2 2 2 2 2 2 2 2 1 1 1 0 0 1 1 1 1 1 1 1 1 1 1 1 1 1 1
5 5 4 5 5 2 1 4 2 1 1 1 1 1 2 2 2 3 3 4 4 3 3 3 3 2 2 2 1 1 1 1 1 1 0 1 0 0 0 1 1 1 1 1 1 1 1 1 1
4 6 4 3 2 1 3 4 1 2 0 1 1 1 2 2 2 2 3 3 3 3 3 3 3 3 2 1 1 1 1 1 1 1 1 1 1 1 1 1 1 1 1 1 1 0 0 0 1
3 3 4 5 4 4 3 2 1 2 2 1 1 2 1 2 2 2 2 2 2 2 3 3 3 2 2 2 1 1 1 1 1 1 1 1 0 0 0 1 1 1 1 1 1 1 1 1 0
3 2 4 5 4 4 4 4 2 2 2 1 1 1 1 1 1 1 1 1 1 2 2 3 3 2 2 2 1 1 1 1 1 1 1 1 0 0 1 1 1 1 2 1 1 1 1 1 0
3 3 3 4 4 5 4 0 2 1 1 1 1 1 1 1 1 1 1 1 1 1 1 2 3 2 2 2 2 2 1 1 1 1 1 1 1 1 1 2 1 1 1 2 2 2 1 1 1
3 4 5 5 4 5 5 1 3 1 1 1 1 0 1 1 1 1 1 1 1 1 1 1 2 2 2 2 2 2 1 2 2 1 1 2 2 2 2 2 2 2 2 1 2 2 2 2 2
Wind_Direction
184 188 207 231 209 112 85 77 83 99 84 68 65 68 68 47 28 67 73 56 59 68 69 82 64 59 61 62 67 68 67 69 72 71 70 71 75 77 77 76 77 77 80 80 79 81 82 80 78
166 171 221 240 205 114 89 81 90 77 93 102 82 77 77 66 53 80 89 70 69 69 72 72 68 65 63 63 64 68 68 69 72 73 71 71 73 75 77 77 79 75 77 80 81 83 83 82 82
144 231 277 282 76 78 93 90 93 94 100 102 92 62 58 66 72 80 84 96 85 81 78 78 67 68 64 63 63 67 67 67 69 72 72 69 70 72 74 77 76 76 76 78 82 82 81 81 81
221 201 173 97 89 71 77 97 109 116 98 77 102 89 77 58 65 85 99 96 89 85 84 82 67 66 64 63 64 66 65 64 66 67 69 68 68 71 70 75 73 73 73 73 75 76 77 79 81
259 230 127 110 95 85 79 80 96 102 100 91 97 95 88 70 83 95 98 92 90 89 87 88 75 68 68 66 66 67 67 65 64 64 64 65 67 69 71 71 70 70 71 71 71 72 73 73 78
198 199 139 116 107 99 86 85 107 98 101 101 99 99 89 98 100 98 95 89 84 85 85 93 91 78 71 66 65 67 65 63 63 63 62 62 64 69 73 71 72 72 72 71 71 73 74 75 77
76 100 111 118 120 112 94 93 98 105 103 91 98 103 110 109 105 105 96 88 84 83 86 89 96 97 89 74 66 65 64 62 62 61 61 61 62 65 68 68 65 69 71 72 72 71 72 73 73
359 137 125 127 132 113 104 107 88 85 90 87 83 108 121 127 121 117 109 98 89 87 88 86 83 79 86 88 74 66 63 59 63 63 60 62 72 73 71 71 64 66 69 72 70 70 69 71 71
238 156 130 131 137 124 128 127 100 97 108 99 74 75 108 127 129 124 117 107 96 87 86 84 80 75 71 72 81 81 80 68 75 81 70 57 62 67 74 62 63 65 66 67 65 65 73 86 89
153 122 104 95 110 126 130 129 130 142 122 112 103 100 120 136 140 134 126 119 109 101 92 83 79 75 76 71 75 61 69 66 56 58 60 50 53 58 59 83 69 67 72 77 66 64 92 56 86
90 100 112 103 103 125 134 125 129 151 123 127 134 131 137 144 142 137 129 120 112 103 94 89 86 82 78 80 65 52 53 53 47 42 53 49 52 63 61 74 92 82 78 74 80 82 59 59 56
108 97 109 111 110 119 128 132 115 82 83 105 129 136 143 148 146 146 136 117 114 103 90 85 82 85 73 71 71 55 50 46 47 41 45 46 43 36 46 48 50 51 54 55 55 44 56 53 53
122 115 107 116 111 111 113 114 110 98 99 114 127 137 143 147 150 143 127 122 118 108 103 89 86 83 81 76 62 61 52 39 50 41 33 44 39 37 42 52 48 42 45 51 52 48 52 52 49
125 130 122 121 129 127 127 121 128 121 131 129 133 141 146 144 144 135 127 126 121 114 108 101 100 90 82 79 70 57 58 61 48 43 34 40 40 33 34 46 47 41 40 44 52 58 53 54 50
147 146 141 136 159 156 168 134 147 147 152 146 146 143 145 148 150 145 139 138 128 118 117 110 96 96 87 76 67 56 49 58 53 42 35 45 40 33 40 38 43 42 44 51 54 62 60 62 60
176 184 172 146 183 187 226 170 121 153 168 159 157 153 156 155 155 147 141 139 129 129 124 113 116 114 99 84 77 63 48 48 53 46 32 38 43 41 41 45 46 52 56 56 59 54 56 61 54
189 186 170 155 175 180 207 198 134 159 174 170 171 169 171 164 159 155 152 146 136 129 126 126 122 116 99 85 82 60 51 44 41 39 32 28 36 40 49 41 35 48 54 55 62 58 52 62 56
179 193 189 172 146 172 179 189 151 170 186 191 190 186 186 178 170 161 157 163 156 148 141 122 121 118 109 111 92 78 55 42 42 40 32 28 25 32 46 50 44 52 63 59 65 77 66 61 61
242 219 196 147 155 188 194 213 188 186 199 210 205 200 198 193 178 165 160 163 166 159 147 131 130 125 123 115 97 68 61 41 45 36 35 31 27 31 48 38 44 46 65 61 65 80 89 73 62
223 226 194 143 149 209 204 231 213 197 212 223 228 218 208 201 189 174 169 174 176 169 162 160 163 156 157 118 63 45 49 34 36 27 27 29 28 33 38 51 58 61 80 88 77 82 75 77 33
224 246 242 199 159 196 227 207 179 173 197 212 231 231 216 205 202 184 180 183 183 187 183 189 179 161 155 156 142 129 119 136 103 51 35 21 23 33 40 49 57 62 74 91 85 84 83 80 75
232 253 242 217 222 199 240 242 162 186 186 203 216 211 208 202 201 188 182 178 184 192 193 197 181 165 160 166 172 179 178 47 13 15 50 42 39 51 52 56 58 69 64 86 97 74 57 5 46
261 217 218 225 232 231 225 254 176 163 229 252 208 205 196 194 198 188 182 180 182 181 185 190 179 166 163 181 172 201 199 164 101 56 46 32 58 56 70 66 72 69 69 63 57 44 16 358 348
180 181 180 208 230 235 245 254 234 168 257 279 159 171 167 163 182 186 178 174 174 168 168 164 162 152 165 189 187 199 197 197 175 158 28 352 49 67 90 74 80 77 73 65 58 75 77 19 9
209 228 219 209 213 228 188 247 244 76 357 293 270 186 150 144 153 167 179 181 178 168 160 160 158 160 169 191 208 220 225 227 224 229 224 283 345 5 105 136 98 87 89 77 71 80 82 74 21
215 245 263 270 261 222 190 241 89 88 66 242 201 145 142 140 141 160 170 177 183 179 173 170 166 171 176 189 200 236 244 253 253 258 264 272 311 345 55 137 130 128 139 131 107 93 97 18 17
219 230 285 278 259 248 211 207 187 192 191 163 136 119 133 134 135 152 161 166 178 187 183 185 184 186 181 188 193 196 220 236 252 252 249 248 297 38 106 146 157 162 169 189 173 204 205 219 296
302 238 227 243 254 251 227 228 216 196 209 179 180 160 125 122 132 132 154 165 173 186 192 186 186 190 189 193 194 184 203 205 259 260 236 241 207 153 184 182 182 167 172 183 188 226 261 240 210
182 198 244 250 267 273 264 212 43 332 319 252 211 174 155 145 149 132 128 136 143 136 172 189 188 190 193 198 199 195 193 184 202 234 250 250 218 201 205 196 186 181 192 195 195 211 209 232 230
244 244 248 259 245 253 270 288 80 45 332 303 305 77 124 143 139 129 113 113 123 130 167 192 200 195 197 206 199 194 193 192 208 223 235 242 230 223 223 209 203 196 198 204 210 212 215 228 238